Location: Unspecified
(0.0000°N, 0.0000°E)
Time: 01:21:43
(UTC+00:00)

RS-15 - Visible Passes

Search period start: 20 July 2018 00:00
Search period end: 30 July 2018 00:00
Orbit: 1891 x 2154 km, 64.8° (Epoch: 19 July)

Date Brightness Start Highest point End Pass type
(mag) Time Alt. Az. Time Alt. Az. Time Alt. Az.
20 Jul 9.8 01:08:14 17° N 01:08:14 17° N 01:10:28 10° N visible
21 Jul 9.8 00:33:20 17° N 00:33:20 17° N 00:35:17 10° N visible
21 Jul 9.9 23:58:24 15° NNE 23:58:24 15° NNE 23:59:42 10° NNE visible
22 Jul 10.0 23:23:25 11° NNE 23:23:25 11° NNE 23:23:47 10° NNE visible
24 Jul 10.0 00:56:08 12° NNW 00:56:08 12° NNW 00:57:00 10° NNW visible
25 Jul 9.9 00:21:05 14° N 00:21:05 14° N 00:22:27 10° N visible
25 Jul 9.9 23:45:58 14° N 23:45:58 14° N 23:47:19 10° N visible
26 Jul 9.9 23:10:48 13° NNE 23:10:48 13° NNE 23:11:48 10° NNE visible
27 Jul 10.0 22:35:35 11° NNE 22:35:35 11° NNE 22:35:56 10° NNE visible
29 Jul 10.0 00:07:59 12° NNW 00:07:59 12° NNW 00:08:52 10° NNW visible
29 Jul10.121:24:55NE21:24:55NE20:57:41Svisible
29 Jul 9.9 23:32:36 15° NNW 23:32:36 15° NNW 23:34:24 10° N visible
